W2DEN Weather Reports


Display with metric or nautical units.
time (UTC)temp
F
wind
direction
speed
MPH
gust
MPH
rain 1hr
in
rain 24hr
in
rain mn
in
humidity
%
barometer
mb
20260502185017 60 338 1.0 1.0 0.01 1.87 1.79 94 1010.9
20260502184018 60 23 1.0 3.0 0.03 1.87 1.79 94 1010.9
20260502182017 60 0 2.0 4.0 0.06 1.87 1.79 94 1010.7
20260502181019 60 0.0 1.0 0.06 1.87 1.79 94 1010.8
20260502164017 60 0.0 1.0 0.08 1.81 1.73 95 1010.5
20260502163018 59 23 3.0 5.0 0.09 1.81 1.73 95 1010.9
20260502162137 60 0.0 1.0 0.08 1.80 1.72 95 1011.4
20260502161018 59 0.0 1.0 0.08 1.79 1.71 95 1011.4
20260502152016 60 23 1.0 2.0 0.08 1.73 1.64 95 1011.1
20260502151018 60 0.0 2.0 0.08 1.73 1.63 95 1011.3
20260502123017 60 0.0 1.0 0.31 1.40 1.29 96 1011.1
20260502122017 60 0.0 0.0 0.31 1.35 1.24 96 1011.2
20260502121017 60 0.0 0.0 0.28 1.29 1.18 96 1011.5
20260502115018 60 0.0 1.0 0.27 1.20 1.09 96 1010.6
20260502114017 60 0.0 0.0 0.22 1.15 1.04 96 1010.4
20260502113017 61 225 1.0 2.0 0.17 1.09 0.98 96 1010.3
20260502112016 61 0.0 1.0 0.12 1.04 0.93 96 1010.4
20260502111018 61 0.0 1.0 0.09 1.01 0.90 96 1010.6
20260502110017 61 0.0 1.0 0.03 0.95 0.84 96 1010.4
20260502105016 61 248 1.0 2.0 0.02 0.93 0.82 96 1010.1
20260502104017 61 0.0 1.0 0.05 0.93 0.82 96 1009.4
20260502103016 61 293 1.0 2.0 0.11 0.92 0.81 96 1009.1
20260502102017 61 23 1.0 2.0 0.13 0.92 0.81 96 1009.4
20260502101016 61 23 1.0 1.0 0.14 0.92 0.81 96 1009.4
20260502091016 62 23 1.0 2.0 0.20 0.78 0.67 96 1010.7
20260502071017 64 0.0 0.0 0.16 0.35 0.24 96 1010.7
20260502070017 64 0.0 0.0 0.14 0.32 0.21 96 1011.1
20260502065018 64 0.0 0.0 0.12 0.28 0.17 96 1011.4
20260502064016 64 0.0 0.0 0.12 0.26 0.15 96 1011.2
20260502063037 64 0.0 0.0 0.11 0.24 0.13 96 1011.2
20260502062017 64 0.0 0.0 0.09 0.21 0.10 96 1011.4
20260502061016 65 0.0 0.0 0.08 0.19 0.08 96 1011.5
20260502060016 65 0.0 0.0 0.07 0.18 0.07 96 1011.5
20260502055017 65 0.0 0.0 0.05 0.16 0.05 96 1011.7
20260502054016 65 0.0 0.0 0.03 0.14 0.03 96 1012.1
20260502053016 65 0.0 0.0 0.02 0.13 0.02 96 1011.9
20260502052017 65 0.0 1.0 0.01 0.12 0.01 96 1011.9
20260502051057 65 0.0 0.0 0.00 0.11 0.00 96 1012.1
20260502050017 65 0.0 0.0 0.00 0.11 0.00 96 1012.2
20260502045036 65 0.0 0.0 0.00 0.11 0.00 96 1012.0
20260502044016 64 0.0 0.0 0.01 0.11 0.00 96 1011.7
20260502043017 64 0.0 0.0 0.01 0.11 0.00 96 1011.5
20260502042017 64 0.0 0.0 0.01 0.11 0.00 96 1011.5
20260502041016 65 0.0 1.0 0.02 0.11 0.00 96 1011.2
20260502040016 65 0.0 0.0 0.02 0.11 0.11 96 1011.4
20260502035017 65 0.0 0.0 0.02 0.11 0.11 96 1011.6
20260502034017 65 0.0 0.0 0.01 0.10 0.10 96 1011.6
20260502033017 65 0.0 0.0 0.01 0.10 0.10 96 1011.8
20260502032037 65 0.0 0.0 0.01 0.10 0.10 96 1011.9
20260502031017 65 0.0 0.0 0.00 0.09 0.09 96 1011.9
20260502030017 65 0.0 0.0 0.00 0.09 0.09 96 1011.8
20260502025017 65 0.0 1.0 0.00 0.09 0.09 96 1011.8
20260502024017 65 0.0 0.0 0.00 0.09 0.09 96 1011.8
20260502023017 65 0.0 0.0 0.00 0.09 0.09 95 1011.9
20260502022018 65 0.0 0.0 0.00 0.09 0.09 95 1011.8
20260502021017 65 0.0 0.0 0.00 0.09 0.09 95 1011.8
20260502020017 65 0.0 0.0 0.00 0.09 0.09 95 1011.8
20260502015017 65 0.0 0.0 0.00 0.09 0.09 95 1012.1
20260502014017 65 0.0 0.0 0.00 0.09 0.09 95 1012.4
20260502013017 66 0.0 0.0 0.00 0.09 0.09 95 1012.2
20260502012059 66 0.0 0.0 0.00 0.09 0.09 95 1012.6
20260502011917 66 0.0 0.0 0.00 0.09 0.09 95 1012.6
20260502010918 66 0.0 0.0 0.00 0.09 0.09 95 1012.8
20260502005916 66 0.0 0.0 0.00 0.09 0.09 95 1012.6
20260502004917 66 0.0 0.0 0.00 0.09 0.09 95 1012.2
20260502003917 66 0.0 0.0 0.00 0.09 0.09 95 1011.9
20260502002917 66 0.0 0.0 0.00 0.09 0.09 95 1011.4
20260502001937 66 0.0 0.0 0.00 0.09 0.09 95 1011.3
20260502000917 67 0.0 0.0 0.00 0.09 0.09 94 1011.3
20260501235917 67 0.0 0.0 0.00 0.09 0.09 95 1011.5
20260501234917 67 0.0 0.0 0.01 0.09 0.09 94 1011.3
20260501233917 67 0.0 0.0 0.01 0.09 0.09 94 1011.3
20260501232916 67 68 1.0 1.0 0.01 0.09 0.09 94 1010.8
20260501231918 67 0.0 1.0 0.01 0.09 0.09 94 1010.8
20260501230937 67 0.0 1.0 0.01 0.09 0.09 94 1010.4
20260501225917 67 45 1.0 2.0 0.01 0.09 0.09 94 1010.7
20260501224918 68 0.0 0.0 0.00 0.08 0.08 94 1010.9
20260501223917 67 23 1.0 1.0 0.00 0.08 0.08 94 1011.2
20260501222917 67 0.0 1.0 0.00 0.08 0.08 94 1011.2
20260501221937 68 0.0 1.0 0.00 0.08 0.08 94 1011.4
20260501220957 67 0.0 0.0 0.00 0.08 0.08 94 1011.4
20260501215937 67 0.0 0.0 0.01 0.08 0.08 94 1011.4
20260501214917 67 0.0 0.0 0.02 0.08 0.08 94 1011.2
20260501213936 67 0.0 1.0 0.02 0.08 0.08 94 1011.2
20260501212917 68 0.0 0.0 0.02 0.08 0.08 94 1011.1
20260501211917 68 0.0 1.0 0.03 0.08 0.08 94 1011.1
20260501210917 68 0.0 1.0 0.03 0.08 0.08 94 1011.1
20260501205917 67 0.0 0.0 0.03 0.07 0.07 94 1011.0
20260501204917 67 0.0 1.0 0.03 0.06 0.06 94 1011.1
20260501203937 67 0.0 0.0 0.03 0.06 0.06 93 1011.1
20260501202916 67 0.0 1.0 0.03 0.06 0.06 93 1011.2
20260501201916 67 23 1.0 1.0 0.02 0.05 0.05 92 1011.2
20260501200917 68 0.0 1.0 0.02 0.05 0.05 92 1011.4
20260501195916 68 248 1.0 3.0 0.01 0.04 0.04 91 1011.4
20260501194917 68 23 1.0 3.0 0.00 0.03 0.03 90 1011.5
20260501193916 68 0.0 1.0 0.00 0.03 0.03 90 1011.6
20260501192917 68 68 1.0 2.0 0.00 0.03 0.03 90 1011.8
20260501191916 68 0.0 1.0 0.00 0.03 0.03 89 1012.0
20260501190917 68 68 1.0 3.0 0.00 0.03 0.03 89 1012.0
20260501185917 68 68 1.0 2.0 0.00 0.03 0.03 89 1012.3